#timestamp,LO_Frequency,Hit,StdDev 
1618767815.4,286047014.2,P
1618767835.3,286047014.6,P
1618767855.1,286047013.0,P
1618767856.0,286047013.0,Y
1618767875.8,286046998.3,P
1618767895.7,286046999.4,N
1618767915.5,286046999.3,N
1618767935.3,286046999.3,N
1618767955.2,286046999.3,N
1618767975.0,286046996.9,N
1618767975.9,286046996.9,N
1618767995.8,286046996.5,N
1618768015.6,286046996.7,N
1618768035.4,286046999.4,N
1618768055.3,286046998.7,N
1618768075.1,286046998.3,N
1618768095.8,286046998.6,N
1618768115.7,286046998.5,N
1618768135.5,286046999.6,N
1618768155.4,286046999.6,N
1618768175.2,286046998.2,N
1618768195.0,286046998.2,N
1618768195.9,286046998.2,N
1618768215.8,286046998.7,N
1618768235.6,286046996.5,N
1618768255.4,286046995.1,N
1618768275.3,286046995.1,N
1618768295.1,286046995.3,N
1618768315.9,286046999.4,N
1618768335.7,286046999.4,N
1618768355.5,286046997.2,N
1618768375.4,286046997.4,N
1618768395.2,286046997.3,N
1618768415.0,286046997.6,N
1618768415.9,286046997.6,N
1618768435.8,286046997.0,N
1618768455.6,286046997.9,N
1618768475.5,286046995.0,Y
1618768495.3,286046998.3,P
1618768515.1,286047000.2,N
1618768535.9,286047001.4,N
1618768555.7,286047001.5,N
1618768575.5,286047003.9,N
1618768595.4,286047001.8,N
1618768615.2,286047003.1,N
1618768635.0,286047002.9,N
1618768636.0,286047002.9,N
1618768655.8,286047007.2,Y
1618768675.6,286047003.3,P
1618768725.5,286047001.3,E
1618768735.4,286047003.8,N
1618768755.2,286047001.4,P
1618768775.1,286047001.9,N
1618768776.0,286047001.9,N
1618768795.8,286047000.5,N
